Flag for Japan

Past Weather in Nagasaki, Japan — Yesterday and Last 2 Weeks

Now
73 °F

Partly cloudy.


Feels Like: 74 °F
Forecast: 77 / 67 °F
Wind: 8 mph from North

Location: Nagasaki Airport
Current Time: Sep 25, 2020 at 9:22:55 pm
Latest Report: Sep 25, 2020 at 8:00 pm
Visibility: N/A
Pressure29.77 "Hg
Humidity: 78%
Dew Point: 66 °F
Location of NagasakiLocation

Past Weather in Nagasaki — Graph

°F

Nagasaki Temperature Yesterday

Maximum temperature yesterday: 72 °F (at 6:10 am)
Minimum temperature yesterday: 70 °F (at 8:24 am)
Average temperature yesterday: 71 °F

High & Low Weather Summary for the Past Weeks

 TemperatureHumidityPressure
High84 °F (Sep 13, 2:00 pm)100% (Sep 12, 6:10 am)30.01 "Hg (Sep 12, 6:10 am)
Low63 °F (Sep 20, 6:10 am)30% (Sep 20, 3:00 pm)29.68 "Hg (Sep 25, 3:00 pm)
Average75 °F77%29.86 "Hg
* Reported Sep 10 8:00 pm — Sep 25 8:00 pm, Nagasaki. Weather by CustomWeather, © 2020

Note: Actual official high and low records may vary slightly from our data, if they occured in-between our weather recording intervals... More about our weather records

Nagasaki Weather History for the Previous 24 Hours

Scroll right to see more
 ConditionsComfort  
Time TempWeatherWind HumidityBarometerVisibility
8:00 pm
Fri, Sep 25
73 °FPartly cloudy.8 mph78%29.77 "HgN/A
7:00 pm73 °FPassing clouds.13 mph78%29.74 "HgN/A
6:00 pm75 °FPassing clouds.14 mph74%29.74 "HgN/A
5:00 pm77 °FScattered clouds.15 mph74%29.71 "HgN/A
4:00 pm77 °FScattered clouds.17 mph74%29.68 "HgN/A
3:00 pm79 °FBroken clouds.17 mph65%29.68 "HgN/A
2:00 pm79 °FBroken clouds.15 mph74%29.71 "HgN/A
1:00 pm77 °FBroken clouds.16 mph79%29.71 "HgN/A
12:00 pm77 °FScattered showers. Broken clouds.17 mph79%29.71 "HgN/A
11:00 am79 °FScattered clouds.17 mph79%29.71 "HgN/A
10:00 am77 °FScattered clouds.13 mph79%29.74 "HgN/A
9:00 am75 °FScattered clouds.9 mph78%29.74 "HgN/A
8:00 am73 °FBroken clouds.13 mph89%29.71 "HgN/A
7:00 am72 °FScattered showers. Broken clouds.13 mph88%29.71 "HgN/A
6:10 am72 °FScattered showers. Broken clouds.6 mph88%29.71 "HgN/A
9:27 pm
Thu, Sep 24
70 °FLight rain. Partly cloudy.10 mph94%29.77 "HgN/A
9:07 pm70 °FRain. Partly cloudy.8 mph94%29.77 "Hg6 mi
9:00 pm70 °FLight rain. Partly cloudy.5 mph94%29.77 "HgN/A
Weather by CustomWeather, © 2020

See weather overview